Location: Unspecified
(58.7730°N, 5.8460°E)
Time: 03:19:08
(UTC+02:00)

Resurs 1-4 Rocket - Visible Passes

Search period start: 30 May 2017 00:00
Search period end: 09 June 2017 00:00
Orbit: 800 x 814 km, 98.5° (Epoch: 29 May)

Date Brightness Start Highest point End Pass type
(mag) Time Alt. Az. Time Alt. Az. Time Alt. Az.
30 May 3.6 03:18:14 10° NNE 03:22:58 31° E 03:27:40 10° SSE visible
31 May 4.1 02:54:00 10° NE 02:58:06 22° E 03:02:10 10° SE visible
01 Jun 4.5 02:30:04 10° NE 02:33:08 15° E 02:36:12 10° ESE visible
02 Jun 4.8 02:07:30 10° ENE 02:08:05 10° ENE 02:08:40 10° E visible
03 Jun 3.6 03:19:49 10° NNE 03:24:35 32° E 03:29:20 10° SSE visible
04 Jun 4.1 02:55:33 10° NE 02:59:43 23° E 03:03:52 10° SE visible
05 Jun 4.4 02:31:35 10° NE 02:34:47 16° E 02:37:57 10° ESE visible
06 Jun 4.7 02:08:39 10° ENE 02:09:44 11° ENE 02:10:48 10° E visible
08 Jun 4.0 02:57:07 10° NE 03:01:21 23° E 03:05:33 10° SE visible
